Change the Weather History Date:

Monday, January 13, 2014

  Actual Average (KJMS) Record (KJMS)
Temperature  
Mean Temperature 15 °F 10 °F  
Max Temperature 24 °F 20 °F 48 °F (1896)
Min Temperature 6 °F 0 °F -40 °F (1916)
Degree Days  
Heating Degree Days 50 55  
Month to date heating degree days 713  
Since 1 July heating degree days 4373  
Cooling Degree Days 0 0  
Month to date cooling degree days 0  
Year to date cooling degree days 0  
Moisture  
Dew Point 14 °F    
Average Humidity 92    
Maximum Humidity 100    
Minimum Humidity 79    
Precipitation  
Precipitation 0.10 in 0.02 in 0.15 in (1950)
Month to date precipitation 0.21  
Year to date precipitation 0.21  
Sea Level Pressure  
Sea Level Pressure 29.57 in    
Wind  
Wind Speed 13 mph (West)    
Max Wind Speed 25 mph    
Max Gust Speed 32 mph    
Visibility 10 miles    
Events Snow    
T = Trace of Precipitation, MM = Missing Value Source: NWS Daily Summary

Daily Weather History Graph

Daily Weather History Graph

Search for Another Location

Airport or City:

Trip Planner

Search our weather history database for the weather conditions in past years. The results will help you decide how hot, cold, wet, or windy it might be!

Date:

Astronomy

Jan. 13, 2014 Rise Set
Actual Time 8:16 AM CST 5:06 PM CST
Civil Twilight 7:41 AM CST 5:41 PM CST
Nautical Twilight 7:03 AM CST 6:19 PM CST
Astronomical Twilight 6:26 AM CST 6:56 PM CST
Moon 3:23 PM CST (1/13) 6:05 AM CST (1/13)
Length of Visible Light 9h 59m
Length of Day
8h 49m
Waxing Gibbous, 95% of the Moon is Illuminated
Jan 13
Waxing Gibbous
Jan 15
Full
Jan 23
Last Quarter
Jan 30
New
Feb 6
First Quarter

Hourly Weather History & Observations

Time (CST) Temp. Windchill Dew Point Humidity Pressure Visibility Wind Dir Wind Speed Gust Speed Precip Events Conditions
12:15 AM 24.8 °F 11.5 °F 23.0 °F 93% 29.57 in 10.0 mi WNW 17.3 mph - N/A   Clear
12:35 AM 23.0 °F 6.6 °F 19.4 °F 86% 29.57 in 10.0 mi WNW 25.3 mph 32.2 mph N/A   Clear
12:55 AM 21.2 °F 6.8 °F 17.6 °F 86% 29.58 in 10.0 mi WNW 17.3 mph 27.6 mph N/A   Clear
1:15 AM 19.4 °F 4.5 °F 17.6 °F 93% 29.59 in 10.0 mi WNW 17.3 mph 20.7 mph N/A   Clear
1:35 AM 19.4 °F 4.5 °F 17.6 °F 93% 29.58 in 10.0 mi WNW 17.3 mph 24.2 mph N/A   Clear
1:55 AM 17.6 °F 3.7 °F 15.8 °F 93% 29.59 in 10.0 mi WNW 13.8 mph 24.2 mph N/A   Clear
2:15 AM 17.6 °F 3.2 °F 15.8 °F 93% 29.60 in 10.0 mi WNW 15.0 mph 23.0 mph N/A   Clear
2:35 AM 17.6 °F 1.7 °F 15.8 °F 93% 29.60 in 10.0 mi WNW 18.4 mph 26.5 mph N/A   Scattered Clouds
2:55 AM 17.6 °F 0.9 °F 15.8 °F 93% 29.61 in 10.0 mi WNW 20.7 mph - N/A   Mostly Cloudy
3:15 AM 17.6 °F 0.1 °F 14.0 °F 86% 29.61 in 10.0 mi WNW 23.0 mph 31.1 mph N/A   Partly Cloudy
3:35 AM 15.8 °F -1.1 °F 14.0 °F 93% 29.61 in 10.0 mi WNW 19.6 mph 26.5 mph N/A   Clear
3:55 AM 15.8 °F 0.3 °F 12.2 °F 86% 29.61 in 10.0 mi WNW 16.1 mph 20.7 mph N/A   Clear
4:15 AM 15.8 °F -0.6 °F 12.2 °F 86% 29.61 in 10.0 mi WNW 18.4 mph 23.0 mph N/A   Clear
4:35 AM 15.8 °F 0.3 °F 10.4 °F 79% 29.61 in 10.0 mi WNW 16.1 mph - N/A   Clear
4:55 AM 14.0 °F -2.5 °F 10.4 °F 86% 29.62 in 10.0 mi WNW 17.3 mph 21.9 mph N/A   Clear
5:15 AM 14.0 °F -1.4 °F 10.4 °F 86% 29.62 in 10.0 mi WNW 15.0 mph - N/A   Clear
5:35 AM 14.0 °F -3.0 °F 10.4 °F 86% 29.62 in 10.0 mi WNW 18.4 mph - N/A   Scattered Clouds
5:55 AM 14.0 °F -2.5 °F 10.4 °F 86% 29.62 in 10.0 mi WNW 17.3 mph - N/A   Partly Cloudy
6:15 AM 14.0 °F -2.0 °F 10.4 °F 86% 29.61 in 10.0 mi WNW 16.1 mph - N/A   Partly Cloudy
6:35 AM 12.2 °F -5.3 °F 10.4 °F 92% 29.61 in 10.0 mi WNW 18.4 mph - N/A   Clear
6:55 AM 12.2 °F -5.8 °F 8.6 °F 85% 29.61 in 10.0 mi WNW 19.6 mph - N/A   Clear
7:15 AM 10.4 °F -6.0 °F 8.6 °F 92% 29.60 in 10.0 mi WNW 15.0 mph - N/A   Clear
7:35 AM 10.4 °F -1.5 °F 8.6 °F 92% 29.61 in 10.0 mi WNW 8.1 mph - N/A   Clear
7:55 AM 8.6 °F -4.7 °F 6.8 °F 92% 29.62 in 10.0 mi West 9.2 mph - N/A   Clear
8:15 AM 6.8 °F -5.9 °F 5.0 °F 92% 29.62 in 10.0 mi West 8.1 mph - N/A   Clear
8:35 AM 6.8 °F -5.9 °F 5.0 °F 92% 29.62 in 10.0 mi West 8.1 mph - N/A   Clear
8:55 AM 6.8 °F -0.1 °F 5.0 °F 92% 29.62 in 10.0 mi West 3.5 mph - N/A   Clear
9:15 AM 6.8 °F -5.9 °F 6.8 °F 100% 29.62 in 10.0 mi West 8.1 mph - N/A   Clear
9:35 AM 8.6 °F 2.0 °F 6.8 °F 92% 29.62 in 10.0 mi West 3.5 mph - N/A   Clear
9:55 AM 8.6 °F 2.0 °F 8.6 °F 100% 29.63 in 10.0 mi WNW 3.5 mph - N/A   Clear
10:15 AM 10.4 °F -0.4 °F 8.6 °F 92% 29.63 in 10.0 mi WNW 6.9 mph - N/A   Clear
10:35 AM 12.2 °F 2.9 °F 8.6 °F 85% 29.63 in 10.0 mi WNW 5.8 mph - N/A   Clear
10:55 AM 14.0 °F 2.9 °F 10.4 °F 86% 29.63 in 10.0 mi NW 8.1 mph - N/A   Clear
11:15 AM 14.0 °F 6.5 °F 10.4 °F 86% 29.63 in 10.0 mi West 4.6 mph - N/A   Clear
11:35 AM 14.0 °F 8.2 °F 10.4 °F 86% 29.62 in 10.0 mi West 3.5 mph - N/A   Clear
11:55 AM 14.0 °F - 10.4 °F 86% 29.61 in 10.0 mi Calm Calm - N/A   Clear
12:15 PM 14.0 °F 8.2 °F 10.4 °F 86% 29.60 in 10.0 mi South 3.5 mph - N/A   Clear
12:35 PM 14.0 °F - 10.4 °F 86% 29.59 in 10.0 mi Calm Calm - N/A   Clear
12:55 PM 14.0 °F 8.2 °F 10.4 °F 86% 29.57 in 10.0 mi South 3.5 mph - N/A   Clear
1:15 PM 14.0 °F 5.1 °F 12.2 °F 93% 29.56 in 10.0 mi SSW 5.8 mph - N/A   Clear
1:35 PM 15.8 °F 7.2 °F 12.2 °F 86% 29.54 in 10.0 mi SSW 5.8 mph - N/A   Clear
1:55 PM 15.8 °F 6.1 °F 12.2 °F 86% 29.53 in 10.0 mi South 6.9 mph - N/A   Clear
2:15 PM 15.8 °F 5.1 °F 14.0 °F 93% 29.52 in 10.0 mi South 8.1 mph - N/A   Scattered Clouds
2:35 PM 17.6 °F 9.3 °F 14.0 °F 86% 29.52 in 10.0 mi South 5.8 mph - N/A   Mostly Cloudy
2:55 PM 17.6 °F 6.4 °F 14.0 °F 86% 29.52 in 10.0 mi SSW 9.2 mph - N/A   Overcast
3:15 PM 17.6 °F 7.3 °F 14.0 °F 86% 29.52 in 10.0 mi South 8.1 mph - N/A   Overcast
3:35 PM 17.6 °F 8.2 °F 15.8 °F 93% 29.52 in 10.0 mi South 6.9 mph - N/A   Mostly Cloudy
3:55 PM 17.6 °F 6.4 °F 15.8 °F 93% 29.52 in 10.0 mi SSE 9.2 mph - N/A   Mostly Cloudy
4:15 PM 17.6 °F 8.2 °F 15.8 °F 93% 29.52 in 10.0 mi SE 6.9 mph - N/A   Overcast
4:35 PM 17.6 °F 7.3 °F 15.8 °F 93% 29.51 in 10.0 mi SSE 8.1 mph - N/A   Overcast
4:55 PM 17.6 °F 8.2 °F 15.8 °F 93% 29.50 in 10.0 mi SSE 6.9 mph - N/A   Overcast
5:15 PM 17.6 °F 8.2 °F 15.8 °F 93% 29.51 in 10.0 mi ESE 6.9 mph - N/A   Overcast
5:35 PM 17.6 °F 8.2 °F 15.8 °F 93% 29.51 in 10.0 mi ESE 6.9 mph - N/A   Overcast
5:55 PM 19.4 °F 10.4 °F 17.6 °F 93% 29.52 in 10.0 mi ESE 6.9 mph - N/A   Overcast
6:15 PM 19.4 °F 10.4 °F 17.6 °F 93% 29.51 in 10.0 mi ESE 6.9 mph - N/A   Overcast
6:35 PM 19.4 °F 8.6 °F 17.6 °F 93% 29.48 in 10.0 mi SE 9.2 mph - N/A   Overcast
6:55 PM 19.4 °F 8.6 °F 17.6 °F 93% 29.49 in 10.0 mi SE 9.2 mph - N/A   Overcast
7:15 PM 19.4 °F 9.5 °F 17.6 °F 93% 29.48 in 10.0 mi SE 8.1 mph - N/A   Overcast
7:35 PM 19.4 °F 8.6 °F 17.6 °F 93% 29.49 in 10.0 mi ESE 9.2 mph - N/A   Overcast
7:55 PM 17.6 °F 7.3 °F 17.6 °F 100% 29.48 in 10.0 mi ESE 8.1 mph - N/A   Overcast
8:15 PM 17.6 °F 7.3 °F 17.6 °F 100% 29.49 in 10.0 mi ESE 8.1 mph - N/A   Overcast
8:35 PM 17.6 °F 7.3 °F 17.6 °F 100% 29.50 in 10.0 mi ESE 8.1 mph - N/A   Overcast
8:55 PM 17.6 °F 8.2 °F 17.6 °F 100% 29.50 in 10.0 mi ESE 6.9 mph - N/A   Overcast
9:15 PM 17.6 °F 8.2 °F 17.6 °F 100% 29.50 in 5.0 mi ESE 6.9 mph - N/A Snow Light Snow
9:35 PM 17.6 °F 7.3 °F 17.6 °F 100% 29.50 in 2.5 mi ESE 8.1 mph - 0.01 in Snow Light Snow
9:55 PM 17.6 °F 12.3 °F 17.6 °F 100% 29.52 in 4.0 mi East 3.5 mph - 0.01 in Snow Light Snow
10:15 PM 17.6 °F 10.7 °F 17.6 °F 100% 29.55 in 2.0 mi NNE 4.6 mph - 0.01 in Snow Light Snow
10:35 PM 17.6 °F 8.2 °F 17.6 °F 100% 29.56 in 2.5 mi NNE 6.9 mph - 0.09 in Snow Light Snow
10:55 PM 17.6 °F 7.3 °F 17.6 °F 100% 29.56 in 10.0 mi NNE 8.1 mph - 0.09 in   Overcast
11:15 PM 17.6 °F 7.3 °F 17.6 °F 100% 29.58 in 10.0 mi North 8.1 mph - N/A   Overcast
11:35 PM 15.8 °F 6.1 °F 15.8 °F 100% 29.59 in 10.0 mi NNE 6.9 mph - N/A   Overcast
11:55 PM 17.6 °F 8.2 °F 17.6 °F 100% 29.61 in 10.0 mi North 6.9 mph - N/A   Overcast